El Hierro > ESTACION METEOROLÓGICA Mirador de Jinama

DATOS ACTUALES Online

Ultima actulizacion 25 minutos

10.3 ºC

Temperatura

75

Humedad (%)

880.6

Presión (mb)

0.2

Precipitación (mm)

69.1 W

Viento (Km/h)

DATOS DIARIOS

Temperatura últimas 24 horas (ºC)

Humedad últimas 24 horas (%)

Presión atmosférica últimas 24 horas (mb)

Precipitaciones últimas 23 horas (mm)

Viento últimas 24 horas (Km/h)

Hora Temperatura (°C) ºC Precipitación (mm) mm Presión (mb) mb Humedad (%) % Viento (Km/h) km/h
19 - 10:00 9.2 0.1 882 98 55.4 W
19 - 11:00 9.6 0.1 882 98 55.4 W
19 - 12:00 9.7 0.1 882 98 46.4 NW
19 - 13:00 9.6 0.1 881 95 39.2 NW
19 - 14:00 9.9 0.1 880 93 42.8 W
19 - 15:00 10.2 0.1 880 94 38.2 NW
19 - 16:00 9.7 0.1 881 95 29.2 NW
19 - 17:00 10.4 0.1 881 84 13 NW
19 - 18:00 10.7 0.1 881 74 18.4 NW
19 - 19:00 10.9 0.1 881 80 23.8 W
19 - 20:00 11.1 0.1 882 81 15.1 N
19 - 21:00 10.1 0.1 883 89 19.1 NW
19 - 22:00 9.8 0 883 91 12.2 NW
19 - 23:00 9.4 0 882 95 19.4 W
20 - 00:00 8.6 0 882 76 29.5 W
20 - 01:00 9.2 0 882 58 38.9 W
20 - 02:00 9.7 0 882 55 24.1 NW
20 - 03:00 10.1 0 881 62 43.2 W
20 - 04:00 9.3 0 880 77 55.4 W
20 - 05:00 9.3 0 879 79 62.3 W
20 - 06:00 9.2 0 880 87 57.2 W
20 - 07:00 9.8 0 880 78 65.9 NW
20 - 08:00 9.7 0.2 880 79 56.9 W
20 - 09:00 10.3 0.2 881 75 69.1 W
20 - 10:00
Apalmet utiliza cookies propias y de terceros para mejorar la usabilidad y la experiencia web. Política de cookies.